Location: Unspecified
(0.0000°N, 0.0000°E)
Time: 03:34:28
(UTC+02:00)

ISS - Visible Passes

Search period start: 25 July 2014 00:00
Search period end: 04 August 2014 00:00
Orbit: 411 x 419 km, 51.6° (Epoch: 24 July)

Date Brightness Start Highest point End Pass type
(mag) Time Alt. Az. Time Alt. Az. Time Alt. Az.
30 Jul -1.8 20:55:25 10° S 20:57:51 19° SE 20:57:51 19° SE visible
31 Jul -1.3 21:42:56 10° WSW 21:45:51 29° NW 21:47:48 16° N visible
01 Aug -3.1 20:54:03 10° SW 20:57:21 76° NW 21:00:39 10° NNE visible
03 Aug -0.6 07:41:47 10° N 07:44:38 25° NE 07:47:28 10° ESE visible
03 Aug 0.0 20:55:03 10° W 20:56:57 15° NW 20:58:51 10° NNW visible
